Regional Weather Roundup
Issued by NWS

Home | Current Version | Previous Version | Text Only | Print | Product List | Glossary On
Versions: 1 2 3 4 5 6 7 8 9 10 11 12 13 14 15 16 17 18 19 20 21 22 23 24 25 26 27 28 29 30 31 32 33 34 35 36 37 38 39 40 41 42 43 44 45 46 47 48 49 50
000
ASUS44 KMEG 240500
RWRTN
TENNESSEE HOURLY STATE WEATHER ROUNDUP
NATIONAL WEATHER SERVICE MEMPHIS TN
1200 AM CDT WED SEP 24 2014

TNZ002-004-019-021-049-052-054-088>092-240600-
WEST TENNESSEE

CITY           SKY/WX    TMP DP  RH WIND       PRES   REMARKS
MEMPHIS INTL   CLEAR     67  49  52 NE7       30.19S
NWS MEMPHIS      N/A     58 N/A N/A MISG        N/A
JACKSON        CLEAR     55  50  83 CALM      30.21R
DYERSBURG      CLEAR     57  43  58 NE5       30.22S
UNION CITY     CLEAR     55  48  76 E5        30.21S
PARIS          CLEAR     50  45  81 NE3       30.22F
SAVANNAH       CLEAR     55  48  76 CALM      30.20S
$$

TNZ008-025-027-028-033-062-065-066-240600-
NORTH MIDDLE TENNESSEE

CITY           SKY/WX    TMP DP  RH WIND       PRES   REMARKS
NASHVILLE      CLEAR     57  50  77 N3        30.24S
CLARKSVILLE    CLEAR     56  46  69 CALM      30.24S
COOKEVILLE     CLEAR     46  46 100 CALM      30.25S
CROSSVILLE     CLEAR     57  50  77 NE3       30.28S
$$

TNZ061-075-076-078-094-096-097-240600-
SOUTH MIDDLE TENNESSEE

CITY           SKY/WX    TMP DP  RH WIND       PRES   REMARKS
SHELBYVILLE    CLEAR     55  52  88 CALM      30.24S
$$

TNZ017-018-042-046-047-240600-
NORTHEAST TENNESSEE

CITY           SKY/WX    TMP DP  RH WIND       PRES   REMARKS
TRI CITIES     CLEAR     56  50  80 S5        30.30S
ELIZABETHTON   CLEAR     52  48  87 CALM      30.31R
$$

TNZ012-013-036-069-073-074-240600-
CENTRAL EAST TENNESSEE

CITY           SKY/WX    TMP DP  RH WIND       PRES   REMARKS
KNOXVILLE      CLEAR     58  54  86 N3        30.24S
OAK RIDGE      CLEAR     57  54  89 NE3       30.27S
GATLINBURG     CLEAR     54  52  94 CALM      30.25S
$$

TNZ083-085-099-240600-
SOUTHEAST TENNESSEE

CITY           SKY/WX    TMP DP  RH WIND       PRES   REMARKS
CHATTANOOGA    CLEAR     64  55  72 SW3       30.25S
$$

SKY/WX REPORTED AS FAIR MEANS FEW OR NO CLOUDS BELOW
12 THOUSAND FEET.



USA.gov is the U.S. government's official web portal to all federal, state and local government web resources and services.